Location: Rounton
(54.4000°N, 1.3500°W)
Time: 12:25:12
(UTC+00:00)

Vanguard 2 Rocket - Visible Passes

Search period start: 22 February 2024 00:00
Search period end: 03 March 2024 00:00
Orbit: 554 x 3310 km, 32.9° (Epoch: 22 February)

Date Brightness Start Highest point End Pass type
(mag) Time Alt. Az. Time Alt. Az. Time Alt. Az.
22 Feb 10.4 18:58:29 10° WSW 19:11:38 31° SSW 19:27:27 10° SE visible
22 Feb 10.8 21:14:40 10° WSW 21:25:38 19° SW 21:36:25 11° S visible
23 Feb 10.4 17:56:29 10° WSW 18:08:40 32° S 18:24:31 10° SE visible
23 Feb 10.7 20:10:49 10° WSW 20:22:54 23° SSW 20:36:30 10° SSE visible
24 Feb 10.6 19:07:59 10° WSW 19:20:04 27° SSW 19:34:42 10° SSE visible
24 Feb 10.9 21:26:22 10° WSW 21:33:44 14° SW 21:41:27 10° SSW visible
25 Feb 10.5 18:05:50 10° WSW 18:17:14 29° SSW 18:32:05 10° SE visible
25 Feb 10.9 20:21:15 10° WSW 20:31:11 18° SSW 20:42:19 10° S visible
26 Feb 10.7 19:17:54 10° WSW 19:28:30 22° SSW 19:41:16 10° SSE visible
27 Feb 10.6 18:15:29 10° WSW 18:25:49 25° SSW 18:39:10 10° SSE visible
27 Feb 11.0 20:33:22 10° WSW 20:39:27 13° SW 20:46:02 10° SSW visible
28 Feb 10.9 19:28:36 10° WSW 19:36:57 17° SSW 19:46:45 10° S visible
29 Feb 10.8 18:25:37 10° WSW 18:34:25 20° SSW 18:45:29 10° SSE visible
01 Mar 11.1 19:41:51 10° SW 19:45:26 11° SW 19:49:15 10° SSW visible
02 Mar 11.0 18:36:45 10° SW 18:43:03 14° SSW 18:50:29 10° S visible
